TimeWET,TemperatureF,Dew PointF,Humidity,Sea Level PressureIn,VisibilityMPH,Wind Direction,Wind SpeedMPH,Gust SpeedMPH,PrecipitationIn,Events,Conditions,WindDirDegrees,DateUTC
6:00 AM,59,49,59,29.49,6,SSW,4.6,,,,Mostly Cloudy,200,2013-03-04 06:00:00
6:00 AM,59.0,48.2,67,29.47,6.2,SSW,4.6,-,N/A,,Mostly Cloudy,200,2013-03-04 06:00:00
7:00 AM,57.2,48.2,72,29.47,6.2,WSW,4.6,-,N/A,,Mostly Cloudy,240,2013-03-04 07:00:00
8:00 AM,57.2,50.0,77,29.44,5.0,SSW,2.3,-,N/A,Rain,Light Rain,200,2013-03-04 08:00:00
9:00 AM,57,50,71,29.45,5,SSE,6.9,,,Rain,Light Rain,160,2013-03-04 09:00:00
9:00 AM,57.2,50.0,77,29.44,5.0,SSE,6.9,-,N/A,,Overcast,160,2013-03-04 09:00:00
10:00 AM,59.0,51.8,77,29.44,5.0,WSW,4.6,-,N/A,,Overcast,240,2013-03-04 10:00:00
11:00 AM,60.8,51.8,72,29.42,5.0,NNE,2.3,-,N/A,,Overcast,20,2013-03-04 11:00:00
12:00 PM,62,53,63,29.41,5,ENE,2.3,,,,Partly Cloudy,60,2013-03-04 12:00:00
12:00 PM,62.6,51.8,68,29.39,5.0,ENE,2.3,-,N/A,,Overcast,60,2013-03-04 12:00:00
1:00 PM,62.6,51.8,68,29.39,5.0,North,2.3,-,N/A,,Overcast,360,2013-03-04 13:00:00
2:00 PM,62.6,51.8,68,29.39,5.0,North,2.3,-,N/A,,Overcast,360,2013-03-04 14:00:00
3:00 PM,60,51,64,29.52,5,NNW,6.9,,,Rain,Light Rain,340,2013-03-04 15:00:00
3:00 PM,59.0,51.8,77,29.39,5.0,NNW,6.9,-,N/A,Rain,Light Rain,340,2013-03-04 15:00:00
4:00 PM,62.6,53.6,72,29.42,5.0,West,2.3,-,N/A,,Mostly Cloudy,260,2013-03-04 16:00:00
5:00 PM,62.6,53.6,72,29.39,6.2,ENE,16.1,-,N/A,,Mostly Cloudy,60,2013-03-04 17:00:00
6:00 PM,60,51,65,29.41,6,NNE,2.3,,,,Partly Cloudy,20,2013-03-04 18:00:00
6:00 PM,60.8,51.8,72,29.39,6.2,NNE,2.3,-,N/A,,Scattered Clouds,20,2013-03-04 18:00:00
7:00 PM,57.2,50.0,77,29.42,6.2,WSW,2.3,-,N/A,,Scattered Clouds,240,2013-03-04 19:00:00
8:00 PM,59.0,51.8,77,29.44,6.2,NW,11.5,-,N/A,,Scattered Clouds,320,2013-03-04 20:00:00
9:00 PM,58,52,76,29.49,6,SE,6.9,,,,Mostly Cloudy,140,2013-03-04 21:00:00
9:00 PM,59.0,51.8,77,29.47,6.2,SE,6.9,-,N/A,,Scattered Clouds,140,2013-03-04 21:00:00